www.pogodaiklimat.ru

Погода и климат >> Архив погоды >> Аргентина >> Мендоса


ПОГОДА в Мендосе

  • Прогноз погоды в Мендосе
  • Монитор погоды в Мендосе

АРХИВ ПОГОДЫ в Мендосе

Время (UTC), дата Ветер
(напр.,м/с)
 
Видим.   Явления Облачность Т
(С)
Тd
(С)
f
(%)
Тe
(С)
Тes
(С)
Комфортность P
(гПа)
Po
(гПа)
Тmin
(С)
Tmax
(С)
R
(мм)
R24
(мм)
S
(см)
09 13.04 штиль 0 15 км 3/0
[Ac As]
+15.0 +11.6 80 +15 +15 1004.3 926.4
12 13.04 ЮЗ 2 15 км 4/0
[Ac As Cs]
+16.6 +10.6 68 +17 +18 1006.8 928.1 +12.9 +23.5
15 13.04 ЮВ 4 15 км 1/1 1500 м
[Sc Ac As]
+22.8 +11.8 50 +25 +31 комфорт 1007.0 928.6
18 13.04 В 4 15 км 3/1 1500 м
[Sc Ac As]
+25.6 +11.0 40 +27 +32 жарко 1004.7 926.6
21 13.04 ЮВ 3 15 км 4/1 1500 м
[Sc Ac As Cs]
+26.6 +10.3 36 +27 +28 жарко 1004.7 926.5
00 14.04 Ю 2 15 км 3/1 1500 м
[Sc Ac As]
+21.2 +13.5 61 +24 +24 комфорт 1007.8 928.9 +12.7 +27.4
03 14.04 С 1 15 км 1/1 1500 м
[Sc]
+19.0 +9.9 56 +21 +21 комфорт 1009.0 930.5
06 14.04 ЮЗ 1 15 км 3/0
[Ci fib]
+16.8 +11.5 71 +18 +18 1008.7 930.2
09 14.04 Ю 2 15 км ясно +16.4 +11.0 70 +17 +17 1009.1 930.6
12 14.04 ЮЗ 2 15 км 3/3 1350 м
[Cu Sc Ac lent Cs]
+17.5 +12.3 72 +18 +19 1012.7 933.4 +15.0 +21.2
15 14.04 ЮВ 5 15 км 4/3 1350 м
[Cu Sc Ac lent Cs]
+21.8 +9.1 44 +23 +27 комфорт 1013.9 934.9
18 14.04 ЮВ 4 15 км 3/1 1350 м
[Cu Sc Ac lent Cs]
+23.8 +8.9 39 +25 +30 комфорт 1011.3 932.4
21 14.04 Ю 2 15 км 8/6 1350 м
[Cu Sc Ac lent Cs]
+25.2 +12.2 44 +27 +27 жарко 1010.0 931.4
00 15.04 ЮЗ 2 15 км 8/5 1350 м
[Sc Ac As]
+22.6 +12.0 51 +25 +25 комфорт 1012.3 933.3 +17.4 +25.7
03 15.04 Ю 4 15 км 5/4 1350 м
[Sc Ac As]
+20.6 +7.4 42 +22 +22 комфорт 1014.1 935.3
06 15.04 Ю 7 15 км 5/4 1350 м
[Sc Ac As]
+19.4 +2.8 33 +19 +19 1013.4 934.6
09 15.04 Ю 7 15 км 6/5 1350 м
[Sc Ac As]
+17.4 +1.3 34 +17 +17 1015.5 936.6
12 15.04 Ю 7 15 км 5/5 1350 м
[Cu Sc Ac As]
+16.4 +0.6 34 +15 +15 1019.6 939.8 +15.5 +22.6
15 15.04 Ю 5 15 км 1/1 1500 м
[Sc]
+20.0 +4.1 35 +20 +25 1020.8 941.2
18 15.04 Ю 3 15 км 1/0
[Ac As]
+23.0 +4.4 30 +23 +31 комфорт 1018.6 939.4
21 15.04 В 4 15 км 1/0
[Cs]
+22.4 +7.0 37 +23 +24 комфорт 1018.1 938.6
00 16.04 штиль 0 15 км ясно +18.1 +10.5 61 +18 +18 1020.2 939.8 +24.0
03 16.04 З 1 15 км ясно +16.4 +9.3 63 +17 +17 1020.2 940.1
06 16.04 штиль 0 15 км ясно +13.8 +9.0 73 +13 +13 1018.4 938.5
09 16.04 С 1 15 км ясно +12.1 +9.6 85 +12 +12 1017.1 937.0
12 16.04 Ю 1 15 км ясно +12.4 +8.9 79 +12 +13 1017.1 936.5 +9.2 +18.1
15 16.04 В 4 15 км ясно +20.0 +10.3 54 +22 +28 комфорт 1014.8 935.0
18 16.04 С 3 15 км 1/0
[Ac As]
+23.8 +9.1 39 +25 +32 комфорт 1011.2 932.0
21 16.04 С 3 15 км 3/0
[Ac As Cs]
+25.6 +8.8 34 +26 +27 жарко 1009.0 930.0
00 17.04 ЮЗ 2 15 км 1/0
[Cs]
+20.8 +11.8 56 +24 +24 комфорт 1010.4 930.6 +12.4 +26.6
03 17.04 штиль 0 15 км ясно +16.5 +10.7 69 +16 +16 1011.5 932.1
06 17.04 ЮЗ 2 15 км ясно +13.9 +10.6 80 +14 +14 1010.9 931.7
09 17.04 ЮЗ 2 15 км ясно +13.1 +10.7 85 +12 +12 1010.3 931.3
12 17.04 штиль 0 15 км 1/0
[Ac As]
+13.8 +10.5 80 +13 +14 1012.3 932.6 +11.2 +21.0
15 17.04 СВ 2 15 км 1/0
[Ac As]
+20.0 +12.8 63 +23 +32 комфорт 1012.3 932.8
18 17.04 СВ 2 15 км ясно +25.6 +11.7 42 +27 +36 жарко 1008.6 929.8
21 17.04 В 3 15 км 1/0
[Ac As]
+26.4 +10.5 37 +27 +28 жарко 1007.3 928.6
00 18.04 З 2 15 км ясно +21.2 +14.2 64 +24 +24 комфорт 1009.9 930.4 +13.8 +27.5
03 18.04 СВ 1 15 км 1/0
[Ci fib]
+19.0 +12.0 64 +21 +21 комфорт 1010.8 931.8
06 18.04 ЮЗ 2 15 км 1/0
[Ci fib]
+14.8 +11.9 83 +15 +15 1009.8 931.0
09 18.04 ЮЗ 1 15 км 3/0
[Cs]
+13.2 +11.8 91 +13 +13 1008.9 930.1
12 18.04 С 1 15 км 8/0
[Cs]
+13.4 +11.2 87 +14 +14 1010.5 930.9 +11.7 +21.2
15 18.04 В 3 15 км 4/0
[Cs]
+20.6 +12.7 61 +23 +30 комфорт 1009.4 930.6
18 18.04 В 3 15 км 8/4 1500 м
[Sc Cs]
+24.6 +13.3 49 +27 +31 жарко 1006.6 928.0
21 18.04 В 3 15 км 10/1 1500 м
[Sc Cs]
+24.4 +13.0 49 +26 +27 жарко 1006.7 927.8
03 19.04 ЮЗ 2 15 км 9/0
[Cs]
+18.7 +13.6 72 +20 +20 1009.5 930.6
06 19.04 ЮЗ 2 15 км 9/0
[Cs]
+16.6 +13.1 80 +17 +17 1009.4 930.8
09 19.04 Ю 2 15 км 8/0
[Cs]
+16.5 +12.5 77 +17 +17 1009.8 931.0
12 19.04 штиль 0 15 км ясно +16.3 +11.1 71 +16 +17 1011.4 932.0 +13.8 +20.6
15 19.04 З 1 15 км 6/4 1350 м
[Sc Ac As Cs]
+23.0 +14.1 57 +26 +32 жарко 1011.3 932.6
18 19.04 ЮВ 1 15 км 6/5 1350 м
[Cu Sc Ac As Cs]
+24.9 +13.9 50 +27 +32 жарко 1008.7 930.2
21 19.04 ЮЗ 2 15 км 6/5 1350 м
[Sc Ac As]
+24.0 +13.1 51 +26 +27 жарко 1008.0 929.4
00 20.04 ЮЗ 2 15 км 6/0
[Ac As]
+21.0 +14.0 64 +25 +25 комфорт 1010.0 930.8 +16.3 +25.5
03 20.04 Ю 3 15 км 4/1 1200 м
[Sc Ac As]
+20.0 +11.2 57 +22 +22 комфорт 1011.2 932.6

 

Местоположение метеостанции Мендоса (Аргентина): широта -32.83 долгота -68.78 высота над уровнем моря 704 м.

В архиве по умолчанию представлена погода в Мендосе за последнюю неделю. Архивные данные за месяц целиком и за предыдущие месяцы, начиная с января 2011 года, Вы можете получить, выбрав интересующий диапазон дат из раскрывающегося списка и нажав кнопку "Ввод!".


*Определитесь, кто Вы:
робот инопланетянин человек

Внимание! Время в таблицах - всемирное. Для получения местного времени необходимо прибавить поправку, которая равна -3 ч.

Смотрите также архив погоды в соседних городах и на ближайших метеорологических станциях:

Погода в Сан-Мартине (Аргентина) (44 км)
Погода на Пасо Лос Либертадорес (Чили) (125 км)
Погода в Сан-Хуане (Аргентина) (163 км)
Погода в Сан-Хосе-де-Майпо (Чили) (170 км)
Погода в Сантьяго Агуас Андинас (Чили) (183 км)
Погода в Ло-Пинто (Чили) (188 км)
Погода в Сантьяго (Чили) (189 км)
Погода в Пудауэле (Чили) (196 км)
Погода в Сан-Рафаэле (Аргентина) (198 км)
Погода в Льяй Льяй (Чили) (199 км)

Пояснения к столбцам:

Ветер - указаны скорость ветра в м/с - средняя за 10 мин, порывы в срок и между сроками (в фигурных скобках) и направление, откуда дует ветер: С - северный, СВ - северо-восточный, В - восточный, ЮВ - юго-восточный, Ю - южный, ЮЗ - юго-западный, З - западный, СЗ - северо-западный.
Видимость - горизонтальная дальность видимости в метрах или километрах. При видимости от 1 до 10 км при отсутствии осадков обычно наблюдается дымка, при ухудшении видимости до 1 км и менее - туман. В сухую погоду видимость может ухудшаться дымом, пылью или мглою.
Явления - указаны атмосферные явления, наблюдавшиеся в срок или в последний час перед сроком; фигурными скобками обозначены явления, наблюдавшиеся между сроками (за 1-3 часа до срока); квадратными скобками обозначены град или гололедные отложения с указанием их диаметра в мм.
Облачность - указаны через наклонную черту общая и нижняя облачность в баллах и высота нижней границы облаков в метрах; квадратными скобками обозначены формы облаков: Ci - перистые, Cs - перисто-слоистые, Cc - перисто-кучевые, Ac - высококучевые, As - высокослоистые, Sc - слоисто-кучевые, Ns - слоисто-дождевые, Cu - кучевые, Cb - кучево-дождевые. Подробнее классификацию облаков см. в Атласе облаков (PDF).
T - Температура воздуха - температура, измеренная на высоте 2 м над землей.
Td - Температура точки росы - температура, при понижении до которой содержащийся в воздухе водяной пар достигнет насыщения.
f - Относительная влажность воздуха - влажноcть воздуха, измеренная на высоте 2 м над землей.
Te - Эффективная температура - температура, которую ощущает одетый по сезону человек в тени. Характеристика душности погоды. При расчете учитывается влияние влажности воздуха и скорости ветра на теплоощущения человека.
Tes - Эффективная температура на солнце - температура, которую ощущает человек, с поправкой на солнечный нагрев. Характеристика знойности погоды. Зависит от высоты солнца над горизонтом, облачности и скорости ветра. Ночью, в пасмурную погоду, а также при ветре 12 м/с и более поправка равна нулю.
P - Атмосферное давление - приведенное к уровню моря атмосферное давление.
Po - Атмосферное давление - измеренное на уровне метеостанции атмосферное давление.
Tmin - Минимальная температура - минимум температуры воздуха на высоте 2 м над землей.
Tmax - Максимальная температура - максимум температуры воздуха на высоте 2 м над землей.
R - Количество осадков - Количество выпавших осадков за период времени, мм. При наведении курсора мыши на число - период времени, за который выпало указанное количество осадков.
R24 - Количество осадков - Количество выпавших осадков за 24 часа, мм.
S - Снежный покров - Высота снежного покрова, см. При наведении курсора мыши на число - состояние снежного покрова и степень покрытия местности в баллах.